Location: Cahas Mountain Overlook
(37.0833°N, 80.1000°W)
Time: 16:32:56
(UTC-05:00)

S-56A Canister/Altair - Pass Details

Date: 07 December 2023
Orbit: 635 x 2487 km, 38.9° (Epoch: 12 November)

Event Time Altitude Azimuth Distance (km) Brightness Sun altitude
Rises 17:24:56 0° 276° (W) 3,113 11.8 -4.7°
Reaches altitude 10° 17:27:31 10° 261° (W) 2,336 11.6 -5.2°
Maximum altitude 17:31:42 23° 210° (SSW) 1,878 10.3 -6.0°
Drops below altitude 10° 17:37:03 10° 161° (SSE) 3,067 10.7 -6.9°
Sets 17:41:05 0° 148° (SSE) 4,383 11.3 -7.7°
